EHI
0 0 0 0 0 0 0 0 0 0 0 0 0 0 0 0 0 0 0 0 0 0 0 0 0 0 0 0 0 0 0 0 0 0 0 0 0 0
0 0 0 0 0 0 0 0 0 0 0 0 0 0 0 0 0 0 0 0 0 0 0 0 0 0 0 0 0 0 0 0 0 0 0 0 0 0
0 0 0 0 0 0 0 0 0 0 0 0 0 0 0 0 0 0 0 0 0 0 0 0 0 0 0 0 0 0 0 0 0 0 0 0 0 0
0 0 0 0 0 0 0 0 0 0 0 0 0 0 0 0 0 0 0 0 0 0 0 0 0 0 0 0 0 0 0 0 0 0 0 0 0 0
0 0 0 0 0 0 0 0 0 0 0 0 0 0 0 0 0 0 0 0 0 0 0 0 0 0 0 0 0 0 0 0 0 0 0 0 0 0
0 0 0 0 0 0 0 0 0 0 0 0 0 0 0 0 0 0 0 0 0 0 0 0 0 0 0 0 0 0 0 0 0 0 0 0 0 0
0 0 0 0 0 0 0 0 0 0 0 0 0 0 0 0 0 0 0 0 0 0 0 0 0 0 0 0 0 0 0 0 0 0 0 0 0 0
0 0 0 0 0 0 0 0 0 0 0 0 0 0 0 0 0 0 0 0 0 0 0 0 0 0 0 0 0 0 0 0 0 0 0 0 0 0
0 0 0 0 0 0 0 0 0 0 0 0 0 0 0 0 0 0 0 0 0 0 0 0 0 0 0 0 0 0 0 0 0 0 0 0 0 0
0 0 0 0 0 0 0 0 0 0 0 0 0 0 0 0 0 0 0 0 0 0 0 0 0 0 0 0 0 0 0 0 0 0 0 0 0 0
0 0 0 0 0 0 0 0 0 0 0 0 0 0 0 0 0 0 0 0 0 0 0 0 0 0 0 0 0 0 0 0 0 0 0 0 0 0
0 0 0 0 0 0 0 0 0 0 0 0 0 0 0 0 0 0 0 0 0 0 0 0 0 0 0 0 0 0 0 0 0 0 0 0 0 0
0 0 0 0 0 0 0 0 0 0 0 0 0 0 0 0 0 0 0 0 0 0 0 0 0 0 0 0 0 0 0 0 0 0 0 0 0 0
0 0 0 0 0 0 0 0 0 0 0 0 0 0 0 0 0 0 0 0 0 0 0 0 0 0 0 0 0 0 0 0 0 0 0 0 0 0
0 0 0 0 0 0 0 0 0 0 0 0 0 0 0 0 0 0 0 0 0 0 0 0 0 0 0 0 0 0 0 0 0 0 0 0 0 0
0 0 0 0 0 0 0 0 0 0 0 0 0 0 0 0 0 0 0 0 0 0 0 0 0 0 0 0 0 0 0 0 0 0 0 0 0 0
0 0 0 0 0 0 0 0 0 0 0 0 0 0 0 0 0 0 0 0 0 0 0 0 0 0 0 0 0 0 0 0 0 0 0 0 0 0
0 0 0 0 0 0 0 0 0 0 0 0 0 0 0 0 0 0 0 0 0 0 0 0 0 0 0 0 0 0 0 0 0 0 0 0 0 0
0 0 0 0 0 0 0 0 0 0 0 0 0 0 0 0 0 0 0 0 0 0 0 0 0 0 0 0 0 0 0 0 0 0 0 0 0 0
0 0 0 0 0 0 0 0 0 0 0 0 0 0 0 0 0 0 0 0 0 0 0 0 0 0 0 0 0 0 0 0 0 0 0 0 0 0
0 0 0 0 0 0 0 0 0 0 0 0 0 0 0 0 0 0 0 0 0 0 0 0 0 0 0 0 0 0 0 0 0 0 0 0 0 0
0 0 0 0 0 0 0 0 0 0 0 0 0 0 0 0 0 0 0 0 0 0 0 0 0 0 0 0 0 0 0 0 0 0 0 0 0 0
0 0 0 0 0 0 0 0 0 0 0 0 0 0 0 0 0 0 0 0 0 0 0 0 0 0 0 0 0 0 0 0 0 0 0 0 0 0
Wind_Speed
3 3 3 2 2 2 2 2 2 2 3 3 2 2 2 2 4 2 3 7 8 8 8 8 8 9 9 9 9 9 9 10 10 11 11 12 12 12
3 3 3 3 2 2 2 2 2 3 3 2 3 3 3 3 4 2 3 7 7 8 8 8 8 8 8 8 9 9 9 10 10 10 11 12 12 12
3 4 4 3 2 2 2 2 2 2 4 3 2 2 2 3 3 2 3 3 4 8 8 8 8 8 8 8 8 8 9 10 10 10 10 11 11 12
4 4 4 3 3 3 2 2 3 3 3 4 3 2 3 3 2 3 3 3 3 7 8 8 7 7 8 7 7 8 8 9 9 9 10 10 11 12
5 5 4 4 4 3 3 3 3 3 2 3 3 2 2 2 2 2 3 2 3 4 6 6 7 8 8 8 8 8 8 8 8 9 9 10 11 12
4 5 5 5 5 5 4 4 3 3 2 3 3 2 2 2 1 2 2 2 3 3 4 5 6 8 8 8 8 8 7 8 8 9 9 9 11 12
4 4 5 5 6 5 4 3 3 3 2 3 3 2 2 2 2 1 2 3 3 2 2 3 3 3 4 6 7 7 8 8 8 9 9 9 10 11
4 4 4 5 6 7 7 6 5 4 4 3 3 4 4 3 2 2 2 2 3 1 1 3 2 3 3 3 6 8 8 8 8 8 9 10 11 11
4 4 4 4 5 4 6 6 6 7 6 4 4 5 4 4 3 3 3 3 4 2 1 3 2 3 3 4 7 8 7 7 8 9 10 10 11 11
4 4 4 5 5 4 4 4 4 4 5 5 5 5 4 4 4 3 3 2 2 2 1 2 2 2 3 3 6 6 7 7 8 9 9 10 10 10
4 4 5 5 6 5 3 4 4 4 4 4 4 4 5 4 2 1 1 1 2 2 1 1 2 3 3 3 3 6 7 8 8 9 9 10 9 9
3 4 6 6 6 5 4 4 4 3 2 2 2 2 2 2 3 2 2 2 1 2 1 1 1 2 3 2 2 2 3 6 8 9 9 9 9 5
3 3 4 6 7 6 4 3 4 2 2 2 1 1 1 1 1 1 2 2 2 3 2 1 1 1 2 3 3 2 2 3 4 5 6 8 9 7
3 3 3 5 6 5 3 3 2 2 1 1 1 1 1 1 1 1 1 1 2 3 3 2 2 2 2 3 3 3 3 3 3 3 3 7 8 9
2 4 4 4 3 3 3 2 2 1 2 2 2 2 2 1 1 0 1 1 1 2 2 2 2 2 2 3 3 3 3 3 2 2 3 4 4 4
2 3 3 2 2 2 2 1 1 2 2 2 2 1 1 1 1 1 1 1 1 2 2 1 2 2 2 3 3 4 3 3 3 3 4 4 4 3
1 1 1 1 1 1 1 1 1 1 1 1 1 1 1 1 0 1 1 1 1 1 2 2 1 1 2 2 3 3 3 3 3 4 4 5 4 4
1 1 1 1 1 1 1 1 1 1 1 1 1 1 1 1 1 1 1 1 1 1 1 1 2 2 2 2 2 2 2 3 4 4 4 5 6 5
1 1 1 1 1 1 1 1 1 1 1 1 1 1 1 1 1 1 1 1 1 1 1 1 1 1 2 3 3 2 2 4 4 4 4 4 6 6
1 1 1 1 1 1 1 1 1 1 1 1 2 2 1 1 1 1 1 1 1 1 1 1 1 1 2 3 3 3 4 4 3 4 5 5 5 7
1 1 1 1 1 2 2 2 2 2 2 1 2 2 2 1 1 1 1 2 1 1 2 2 2 3 2 1 2 3 3 5 5 4 4 5 5 5
2 2 2 2 2 2 2 2 2 2 2 2 2 1 1 2 2 2 2 1 1 1 1 2 2 2 1 1 2 4 4 5 6 7 6 5 3 4
2 2 2 2 2 1 2 2 2 2 2 2 2 2 2 2 2 2 2 1 1 1 1 1 2 1 2 2 2 3 5 5 5 5 5 7 8 9
Wind_Direction
224 220 226 232 230 224 207 201 195 247 263 254 267 272 286 282 291 292 287 298 304 301 303 304 303 303 303 304 305 306 310 311 311 311 310 311 312 315
225 222 230 230 221 220 213 218 214 214 246 253 257 279 293 299 302 298 282 303 300 298 301 302 302 302 304 302 302 304 308 308 307 310 310 310 311 314
230 225 233 225 218 220 223 223 225 214 245 272 271 282 281 282 304 296 289 285 288 298 301 301 303 307 308 303 301 304 306 309 309 308 310 311 311 312
230 224 232 226 222 223 219 233 236 223 226 260 278 283 276 274 284 296 306 308 292 298 303 301 306 310 310 310 309 306 306 307 308 310 312 313 313 313
227 222 228 219 226 228 224 231 242 239 225 235 262 267 272 277 300 302 301 300 301 305 309 305 307 308 310 310 313 312 310 310 310 312 315 316 314 314
233 228 229 224 226 225 227 228 234 233 230 231 247 257 258 271 271 283 304 301 301 308 307 307 306 311 311 310 310 309 309 308 310 312 313 316 318 315
238 233 233 237 241 236 234 227 224 224 224 234 246 259 254 256 257 259 282 301 294 281 288 298 304 304 306 305 306 302 305 310 313 315 315 318 319 317
239 240 242 241 246 250 252 247 237 231 224 222 238 248 255 254 251 248 263 299 295 270 290 300 300 294 295 290 292 301 305 310 315 319 319 318 317 317
239 243 248 253 251 240 250 251 248 248 236 223 227 237 242 239 230 236 243 266 275 267 286 291 294 291 297 302 303 302 306 312 314 315 316 317 317 317
240 239 237 245 248 240 230 235 243 246 241 232 228 236 243 236 221 227 228 262 273 272 256 274 288 287 300 301 301 305 309 312 313 312 316 318 319 317
242 240 238 239 251 247 224 231 248 256 254 249 252 259 267 263 249 180 190 251 287 285 270 254 277 302 298 293 297 311 315 315 316 319 321 323 325 327
246 244 244 247 252 248 224 220 235 240 227 237 247 269 262 248 255 207 196 221 269 274 250 265 262 324 309 293 301 309 311 312 318 321 323 325 328 329
240 244 247 253 253 256 243 223 233 233 200 201 205 217 223 217 231 235 219 212 235 257 240 248 259 285 273 296 301 298 300 307 312 314 319 324 325 323
241 248 250 256 252 255 251 245 239 224 182 179 189 213 222 234 245 270 273 261 250 246 233 225 231 250 274 288 290 297 307 303 307 310 312 320 322 319
244 254 261 263 259 244 248 241 205 186 180 191 210 221 223 222 218 250 321 313 305 284 264 241 233 244 254 273 284 291 304 305 300 306 311 313 310 312
258 260 264 270 279 252 241 231 208 209 200 203 212 215 214 196 196 201 248 295 323 318 310 282 258 246 266 270 271 285 293 291 310 313 310 306 303 298
222 202 180 180 211 215 206 213 205 194 215 202 197 195 198 203 230 226 231 252 272 297 323 336 327 293 264 261 272 280 294 301 304 311 314 310 303 296
240 194 208 212 218 218 216 213 207 206 209 210 210 210 219 222 239 247 243 236 249 270 293 320 341 342 341 322 272 271 294 302 308 310 307 305 304 305
239 209 220 217 212 217 219 215 218 222 220 219 222 218 218 227 226 233 247 253 254 264 274 293 321 320 313 313 308 300 300 308 309 308 302 296 296 301
231 224 234 229 220 217 220 222 222 217 222 225 218 214 209 217 222 223 226 239 262 272 278 289 292 289 273 283 286 298 305 299 302 303 305 301 293 296
242 238 238 227 219 224 225 226 225 222 231 230 224 221 209 209 219 223 227 231 242 256 272 286 282 303 295 301 302 303 305 307 298 294 300 306 310 311
242 238 236 225 218 222 221 218 222 221 223 230 231 224 211 207 214 222 224 230 245 247 267 291 311 321 308 293 295 300 308 316 318 313 298 284 291 300
235 234 231 224 220 224 219 219 224 223 219 221 220 219 211 210 221 220 222 227 231 236 267 295 316 326 315 298 295 301 306 313 321 326 317 314 302 291